Location: Cul de Sac
(18.0387°N, 63.0654°W)
Time: 07:23:35
(UTC+00:00)

OAO 3 Rocket - Pass Details

Date: 29 October 2020
Orbit: 629 x 682 km, 35.0° (Epoch: 28 November)

Event Time Altitude Azimuth Distance (km) Brightness Sun altitude
Rises 23:28:40 0° 304° (NW) 2,960 7.3 -26.0°
Reaches altitude 10° 23:31:04 10° 306° (NW) 2,040 6.3 -26.5°
Enters shadow 23:34:31 46° 321° (NW) 853 3.9 -27.3°
